Current weather by "City, St" or "zip code"  
 
Advertise Here

Current Conditions: Niagara Falls, Niagara Falls International Airport, NY

Fair


62.0 F

Last Updated on Sep 16 2021, 10:53 pm EDT
Humidity: 73%
Wind Speed: E 5.8 mph
Barometer 30.19 in
Dewpoint: 53.1 F
Visibility: 10.00 mi
Precip: --
Heat Index: NA
Wind Chill: 62 F
Current conditions at:

Niagara Falls, Niagara Falls International Airport, NY (KIAG)

Lat: 43.10829 Lon: 78.93818

Local Radar Image active severe weather and emergency alerts image image weather storm and storm spotter reports image weather observation monitoring service image
Local
Radar
Active
Alerts
Storm Reports Obs
Monitoring

Sign-up For Email & Text Message Weather Alert Notification Services



Advertise Here

Observation History for Niagara Falls, Niagara Falls International Airport, NY


Time Wind
(mph)
Vis
(mi)
Weather Precip (in) Temperature (F) Relative
Humidity
Wind
Chill
(F)
Heat
Index
(F)
Pressure
Air Dwpt altimeter
(in)
sea level
(mb)
Rmks
10:53 pm EDT E 5.8 10.00 Fair -- 62.0 53.1 73% 62 NA 30.19 1022.2
9:53 pm EDT E 8.1 10.00 Fair -- 63.0 53.1 70% 63 NA 30.20 1022.5
8:53 pm EDT E 8.1 10.00 Fair -- 64.0 53.1 68% NA NA 30.20 1022.6
7:53 pm EDT E 8.1 10.00 Fair -- 67.0 53.1 61% NA NA 30.18 1022.0
6:53 pm EDT E 10.4 10.00 Fair -- 72.0 54.0 53% NA NA 30.18 1021.9
5:53 pm EDT E 8.1 10.00 Fair -- 76.0 53.1 45% NA NA 30.18 1021.7
4:53 pm EDT NE 10.4 10.00 A Few Clouds -- 77.0 53.1 43% NA NA 30.18 1022.0
3:53 pm EDT E 9.2 10.00 Fair -- 77.0 53.1 43% NA NA 30.19 1022.0
2:53 pm EDT E 8.1 10.00 Mostly Cloudy -- 77.0 54.0 45% NA NA 30.20 1022.3
1:53 pm EDT E 6.9 10.00 Fair -- 77.0 54.0 45% NA NA 30.21 1022.7
12:53 pm EDT E 9.2 10.00 Fair -- 76.0 55.9 50% NA NA 30.22 1023.0
11:53 am EDT E 11.5 10.00 Fair -- 74.0 57.0 56% NA NA 30.23 1023.4
10:53 am EDT E 8.1 10.00 Fair -- 72.0 57.9 61% NA NA 30.23 1023.6
9:53 am EDT E 9.2 10.00 Fair -- 68.0 57.9 70% NA NA 30.22 1023.4
8:53 am EDT E 5.8 10.00 Fair -- 64.0 57.0 78% NA NA 30.22 1023.2
7:53 am EDT N 0.0 10.00 Fair -- 58.0 54.0 87% NA NA 30.21 1023.1
6:53 am EDT N 0.0 10.00 Fair -- 56.0 52.0 87% NA NA 30.19 1022.3
5:53 am EDT N 0.0 10.00 Fair -- 56.0 52.0 87% NA NA 30.17 1021.7
4:53 am EDT E 3.5 10.00 Fair -- 56.0 52.0 87% NA NA 30.14 1020.8
3:53 am EDT N 0.0 10.00 Fair -- 58.0 54.0 87% NA NA 30.14 1020.6
2:53 am EDT E 3.5 10.00 Fair -- 58.0 54.0 87% NA NA 30.13 1020.2
1:53 am EDT N 0.0 10.00 Fair -- 59.0 55.0 87% NA NA 30.12 1020.0
12:53 am EDT N 0.0 10.00 Fair -- 62.0 55.9 80% NA NA 30.12 1019.8
11:53 pm EDT N 0.0 10.00 Mostly Cloudy -- 63.0 57.9 84% NA NA 30.11 1019.6

Regional Weather Observation


Genesee County Airport, NY (KGVQ)

Fair
60.0 F

Buffalo, Greater Buffalo International Airport, NY (KBUF)

Fair
63.0 F

Dunkirk, Chautauqua County / Dunkirk Airport, NY (KDKK)

Fair
63.0 F

Jamestown, Chautauqua County/Jamestown Airport, NY (KJHW)

Fair
62.0 F

Cattaraugus County-Olean Airport, NY (KOLE)

Fair
59.0 F

Rochester, Greater Rochester International Airport, NY (KROC)

Fair
63.0 F
Advertise Here


Advertise Here